User: anonymous
Location: Unspecified
(0.0000°N, 0.0000°E)
Time: 07:41:31
(UTC+00:00)
Language:

N. Korean satellite - Orbit

View from above orbital plane
View from above orbital plane
View from above satellite
View from above satellite

Ground track
Ground track

The orbit data is extracted from the following two-line orbital elements,

1 39026U 12072A   14259.74686781  .00008616  00000-0  44736-3 0  1372
2 39026 097.3200 296.0007 0053388 109.3938 251.3129 15.15088128 97230
Epoch (UTC): 16 September 2014 17:55:29
Eccentricity: 0.0053388
inclination: 97.3200°
perigee height: 484 km
apogee height: 557 km
right ascension of ascending node: 296.0007°
argument of perigee: 109.3938°
revolutions per day: 15.15088128
mean anomaly at epoch: 251.3129°
orbit number at epoch: 9723

The dashed part of the orbit path shows where the satellite is in the earth's shadow,  

DLR